Location: Capannuccia
(43.7000°N, 11.3000°E)
Time: 13:39:32
(UTC+00:00)

STARLINK-1312 - Pass Details

Date: 07 June 2020
Orbit: 549 x 550 km, 53.0° (Epoch: 15 July)

Event Time Altitude Azimuth Distance (km) Brightness Sun altitude
Exits shadow 00:14:14 60° 271° (W) 629 3.7 -22.1°
Maximum altitude 00:14:49 73° 327° (NNW) 578 3.7 -22.1°
Drops below altitude 10° 00:18:58 10° 53° (NE) 1,827 7.0 -21.9°
Sets 00:21:13 0° 55° (NE) 2,723 8.0 -21.7°
